Time,TemperatureF,DewpointF,PressureIn,WindDirection,WindDirectionDegrees,WindSpeedMPH,WindSpeedGustMPH,Humidity,HourlyPrecipIn,Conditions,Clouds,dailyrainin,SoftwareType,DateUTC
2013-03-08 00:02:00,51.0,31.0,-100.00,North,355,7.0,10.0,47,-99.99,,,-99.99,,2013-03-08 05:02:00,
2013-03-08 00:12:00,51.0,32.0,-100.00,North,0,8.0,11.0,48,-99.99,,,-99.99,,2013-03-08 05:12:00,
2013-03-08 00:22:00,51.0,32.0,-100.00,North,5,0.0,9.0,48,-99.99,,,-99.99,,2013-03-08 05:22:00,
2013-03-08 00:33:00,50.0,31.0,-100.00,North,5,0.0,0.0,48,-99.99,,,-99.99,,2013-03-08 05:33:00,
2013-03-08 00:42:00,49.0,32.0,-100.00,North,5,0.0,0.0,51,-99.99,,,-99.99,,2013-03-08 05:42:00,
2013-03-08 00:52:00,49.0,32.0,-100.00,North,10,0.0,0.0,52,-99.99,,,-99.99,,2013-03-08 05:52:00,
2013-03-08 01:02:00,49.0,32.0,-100.00,NNE,15,7.0,10.0,53,-99.99,,,-99.99,,2013-03-08 06:02:00,
2013-03-08 01:11:00,49.0,31.0,-100.00,NNE,15,0.0,10.0,50,-99.99,,,-99.99,,2013-03-08 06:11:00,
2013-03-08 01:22:00,48.0,31.0,-100.00,NNE,15,0.0,9.0,51,-99.99,,,-99.99,,2013-03-08 06:22:00,
2013-03-08 01:32:00,48.0,31.0,-100.00,NNE,20,1.0,4.0,52,-99.99,,,-99.99,,2013-03-08 06:32:00,
2013-03-08 01:42:00,47.0,31.0,-100.00,NNE,15,0.0,4.0,55,-99.99,,,-99.99,,2013-03-08 06:42:00,
2013-03-08 01:52:00,46.0,31.0,-100.00,NNE,15,0.0,2.0,56,-99.99,,,-99.99,,2013-03-08 06:52:00,
2013-03-08 02:01:00,45.0,31.0,-100.00,North,10,0.0,1.0,57,-99.99,,,-99.99,,2013-03-08 07:01:00,
2013-03-08 02:11:00,45.0,31.0,-100.00,North,10,1.0,6.0,57,-99.99,,,-99.99,,2013-03-08 07:11:00,
2013-03-08 02:22:00,45.0,30.0,-100.00,North,5,3.0,11.0,57,-99.99,,,-99.99,,2013-03-08 07:22:00,
2013-03-08 02:32:00,45.0,31.0,-100.00,North,10,1.0,14.0,58,-99.99,,,-99.99,,2013-03-08 07:32:00,
2013-03-08 02:42:00,44.0,30.0,-100.00,NNE,15,2.0,14.0,58,-99.99,,,-99.99,,2013-03-08 07:42:00,
2013-03-08 02:52:00,44.0,30.0,-100.00,NNE,15,5.0,14.0,58,-99.99,,,-99.99,,2013-03-08 07:52:00,
2013-03-08 03:01:00,44.0,30.0,-100.00,NNE,15,2.0,14.0,59,-99.99,,,-99.99,,2013-03-08 08:01:00,
2013-03-08 03:11:00,43.0,30.0,-100.00,NNE,20,4.0,16.0,59,-99.99,,,-99.99,,2013-03-08 08:11:00,
2013-03-08 03:22:00,43.0,30.0,-100.00,NNE,25,4.0,21.0,59,-99.99,,,-99.99,,2013-03-08 08:22:00,
2013-03-08 03:32:00,43.0,29.0,-100.00,NNE,15,2.0,20.0,58,-99.99,,,-99.99,,2013-03-08 08:32:00,
2013-03-08 03:42:00,43.0,29.0,-100.00,NNE,25,1.0,18.0,59,-99.99,,,-99.99,,2013-03-08 08:42:00,
2013-03-08 03:52:00,42.0,29.0,-100.00,NNE,20,5.0,11.0,60,-99.99,,,-99.99,,2013-03-08 08:52:00,
2013-03-08 04:03:00,42.0,29.0,-100.00,NNE,25,4.0,20.0,59,-99.99,,,-99.99,,2013-03-08 09:03:00,
2013-03-08 04:11:00,42.0,29.0,-100.00,NNE,15,4.0,29.0,60,-99.99,,,-99.99,,2013-03-08 09:11:00,
2013-03-08 04:22:00,42.0,29.0,-100.00,North,10,9.0,26.0,61,-99.99,,,-99.99,,2013-03-08 09:22:00,
2013-03-08 04:32:00,41.0,29.0,-100.00,North,0,1.0,14.0,62,-99.99,,,-99.99,,2013-03-08 09:32:00,
2013-03-08 04:42:00,41.0,28.0,-100.00,North,5,5.0,17.0,61,-99.99,,,-99.99,,2013-03-08 09:42:00,
2013-03-08 04:52:00,41.0,29.0,-100.00,NNE,15,8.0,21.0,60,-99.99,,,-99.99,,2013-03-08 09:52:00,
2013-03-08 05:01:00,41.0,28.0,-100.00,North,0,7.0,20.0,60,-99.99,,,-99.99,,2013-03-08 10:01:00,
2013-03-08 05:11:00,41.0,28.0,-100.00,North,0,8.0,22.0,60,-99.99,,,-99.99,,2013-03-08 10:11:00,
2013-03-08 05:21:00,40.0,28.0,-100.00,North,0,2.0,20.0,60,-99.99,,,-99.99,,2013-03-08 10:21:00,
2013-03-08 05:32:00,40.0,27.0,-100.00,North,5,7.0,21.0,59,-99.99,,,-99.99,,2013-03-08 10:32:00,
2013-03-08 05:42:00,40.0,27.0,-100.00,North,0,4.0,20.0,59,-99.99,,,-99.99,,2013-03-08 10:42:00,
2013-03-08 05:52:00,40.0,28.0,-100.00,North,0,1.0,10.0,62,-99.99,,,-99.99,,2013-03-08 10:52:00,
2013-03-08 06:01:00,40.0,28.0,-100.00,North,0,1.0,17.0,62,-99.99,,,-99.99,,2013-03-08 11:01:00,
2013-03-08 06:11:00,40.0,27.0,-100.00,North,5,12.0,23.0,60,-99.99,,,-99.99,,2013-03-08 11:11:00,
2013-03-08 06:22:00,40.0,27.0,-100.00,North,5,16.0,32.0,58,-99.99,,,-99.99,,2013-03-08 11:22:00,
2013-03-08 06:32:00,40.0,27.0,-100.00,North,10,17.0,40.0,58,-99.99,,,-99.99,,2013-03-08 11:32:00,
2013-03-08 06:42:00,40.0,26.0,-100.00,North,5,11.0,26.0,58,-99.99,,,-99.99,,2013-03-08 11:42:00,
2013-03-08 06:52:00,40.0,26.0,-100.00,North,5,7.0,26.0,58,-99.99,,,-99.99,,2013-03-08 11:52:00,
2013-03-08 07:02:00,39.0,26.0,-100.00,North,5,5.0,19.0,59,-99.99,,,-99.99,,2013-03-08 12:02:00,
2013-03-08 07:11:00,39.0,27.0,-100.00,North,5,3.0,11.0,60,-99.99,,,-99.99,,2013-03-08 12:11:00,
2013-03-08 07:22:00,39.0,27.0,-100.00,North,5,9.0,23.0,60,-99.99,,,-99.99,,2013-03-08 12:22:00,
2013-03-08 07:32:00,39.0,27.0,-100.00,North,5,10.0,24.0,60,-99.99,,,-99.99,,2013-03-08 12:32:00,
2013-03-08 07:43:00,39.0,26.0,-100.00,North,5,9.0,24.0,59,-99.99,,,-99.99,,2013-03-08 12:43:00,
2013-03-08 07:52:00,39.0,26.0,-100.00,North,5,12.0,22.0,59,-99.99,,,-99.99,,2013-03-08 12:52:00,
2013-03-08 08:02:00,39.0,26.0,-100.00,North,10,9.0,25.0,59,-99.99,,,-99.99,,2013-03-08 13:02:00,
2013-03-08 08:11:00,40.0,26.0,-100.00,North,5,8.0,36.0,59,-99.99,,,-99.99,,2013-03-08 13:11:00,
2013-03-08 08:22:00,40.0,26.0,-100.00,North,5,14.0,28.0,58,-99.99,,,-99.99,,2013-03-08 13:22:00,
2013-03-08 08:32:00,40.0,27.0,-100.00,North,5,5.0,22.0,58,-99.99,,,-99.99,,2013-03-08 13:32:00,
2013-03-08 08:42:00,40.0,26.0,-100.00,NNE,20,11.0,37.0,57,-99.99,,,-99.99,,2013-03-08 13:42:00,
2013-03-08 08:52:00,41.0,26.0,-100.00,NNE,20,8.0,26.0,56,-99.99,,,-99.99,,2013-03-08 13:52:00,
2013-03-08 09:03:00,41.0,26.0,-100.00,North,10,14.0,23.0,56,-99.99,,,-99.99,,2013-03-08 14:03:00,
2013-03-08 09:12:00,41.0,26.0,-100.00,North,10,9.0,21.0,56,-99.99,,,-99.99,,2013-03-08 14:12:00,
2013-03-08 09:22:00,42.0,27.0,-100.00,NNE,20,1.0,12.0,55,-99.99,,,-99.99,,2013-03-08 14:22:00,
2013-03-08 09:32:00,42.0,27.0,-100.00,North,5,1.0,11.0,55,-99.99,,,-99.99,,2013-03-08 14:32:00,
2013-03-08 09:42:00,42.0,27.0,-100.00,NNE,15,1.0,8.0,54,-99.99,,,-99.99,,2013-03-08 14:42:00,
2013-03-08 09:52:00,43.0,27.0,-100.00,NNE,15,0.0,9.0,53,-99.99,,,-99.99,,2013-03-08 14:52:00,
2013-03-08 10:03:00,43.0,26.0,-100.00,NNE,15,1.0,9.0,51,-99.99,,,-99.99,,2013-03-08 15:03:00,
2013-03-08 10:12:00,44.0,26.0,-100.00,North,5,1.0,13.0,50,-99.99,,,-99.99,,2013-03-08 15:12:00,
2013-03-08 10:22:00,44.0,26.0,-100.00,North,10,1.0,9.0,49,-99.99,,,-99.99,,2013-03-08 15:22:00,
2013-03-08 10:32:00,45.0,26.0,-100.00,North,10,1.0,15.0,47,-99.99,,,-99.99,,2013-03-08 15:32:00,
2013-03-08 10:42:00,45.0,26.0,-100.00,NNE,20,0.0,2.0,47,-99.99,,,-99.99,,2013-03-08 15:42:00,
2013-03-08 10:53:00,45.0,26.0,-100.00,NNE,25,0.0,6.0,47,-99.99,,,-99.99,,2013-03-08 15:53:00,
2013-03-08 11:02:00,46.0,26.0,-100.00,North,10,0.0,1.0,46,-99.99,,,-99.99,,2013-03-08 16:02:00,
2013-03-08 11:11:00,46.0,26.0,-100.00,NNE,15,1.0,13.0,45,-99.99,,,-99.99,,2013-03-08 16:11:00,
2013-03-08 11:22:00,47.0,27.0,-100.00,NNE,20,1.0,8.0,45,-99.99,,,-99.99,,2013-03-08 16:22:00,
2013-03-08 11:32:00,47.0,26.0,-100.00,North,0,2.0,9.0,44,-99.99,,,-99.99,,2013-03-08 16:32:00,
2013-03-08 11:42:00,47.0,27.0,-100.00,North,0,3.0,6.0,44,-99.99,,,-99.99,,2013-03-08 16:42:00,
2013-03-08 11:52:00,47.0,27.0,-100.00,NNW,345,1.0,10.0,44,-99.99,,,-99.99,,2013-03-08 16:52:00,
2013-03-08 12:03:00,48.0,27.0,-100.00,North,0,4.0,19.0,43,-99.99,,,-99.99,,2013-03-08 17:03:00,
2013-03-08 12:12:00,48.0,26.0,-100.00,NNW,330,1.0,14.0,42,-99.99,,,-99.99,,2013-03-08 17:12:00,
2013-03-08 12:22:00,49.0,26.0,-100.00,NNW,335,4.0,19.0,41,-99.99,,,-99.99,,2013-03-08 17:22:00,
2013-03-08 12:32:00,49.0,26.0,-100.00,NW,315,1.0,7.0,40,-99.99,,,-99.99,,2013-03-08 17:32:00,
2013-03-08 12:42:00,50.0,26.0,-100.00,North,350,1.0,11.0,39,-99.99,,,-99.99,,2013-03-08 17:42:00,
2013-03-08 12:52:00,50.0,26.0,-100.00,NNW,340,7.0,97.0,38,-99.99,,,-99.99,,2013-03-08 17:52:00,
2013-03-08 13:02:00,51.0,25.0,-100.00,NNW,335,1.0,14.0,37,-99.99,,,-99.99,,2013-03-08 18:02:00,
2013-03-08 13:12:00,51.0,23.0,-100.00,NNW,335,20.0,59.0,33,-99.99,,,-99.99,,2013-03-08 18:12:00,
2013-03-08 13:22:00,51.0,22.0,-100.00,NNW,335,11.0,67.0,32,-99.99,,,-99.99,,2013-03-08 18:22:00,
2013-03-08 13:32:00,51.0,23.0,-100.00,NNW,340,19.0,30.0,33,-99.99,,,-99.99,,2013-03-08 18:32:00,
2013-03-08 13:42:00,51.0,23.0,-100.00,NNW,340,4.0,34.0,33,-99.99,,,-99.99,,2013-03-08 18:42:00,
2013-03-08 13:52:00,52.0,23.0,-100.00,North,0,3.0,33.0,33,-99.99,,,-99.99,,2013-03-08 18:52:00,
2013-03-08 14:01:00,52.0,24.0,-100.00,NNW,335,4.0,14.0,33,-99.99,,,-99.99,,2013-03-08 19:01:00,
2013-03-08 14:11:00,53.0,25.0,-100.00,NW,310,0.0,35.0,33,-99.99,,,-99.99,,2013-03-08 19:11:00,
2013-03-08 14:22:00,54.0,24.0,-100.00,NW,325,7.0,21.0,32,-99.99,,,-99.99,,2013-03-08 19:22:00,
2013-03-08 14:32:00,54.0,22.0,-100.00,NNW,335,24.0,42.0,29,-99.99,,,-99.99,,2013-03-08 19:32:00,
2013-03-08 14:42:00,54.0,22.0,-100.00,NNW,335,17.0,39.0,28,-99.99,,,-99.99,,2013-03-08 19:42:00,
2013-03-08 14:52:00,54.0,23.0,-100.00,NNW,340,10.0,22.0,29,-99.99,,,-99.99,,2013-03-08 19:52:00,
2013-03-08 15:01:00,55.0,23.0,-100.00,NW,320,21.0,37.0,28,-99.99,,,-99.99,,2013-03-08 20:01:00,
2013-03-08 15:11:00,55.0,22.0,-100.00,NNW,335,8.0,26.0,28,-99.99,,,-99.99,,2013-03-08 20:11:00,
2013-03-08 15:22:00,55.0,23.0,-100.00,NNW,335,6.0,19.0,28,-99.99,,,-99.99,,2013-03-08 20:22:00,
2013-03-08 15:32:00,56.0,23.0,-100.00,NW,310,5.0,20.0,28,-99.99,,,-99.99,,2013-03-08 20:32:00,
2013-03-08 15:42:00,56.0,22.0,-100.00,NNW,335,9.0,28.0,27,-99.99,,,-99.99,,2013-03-08 20:42:00,
2013-03-08 15:53:00,56.0,22.0,-100.00,NNW,335,23.0,39.0,27,-99.99,,,-99.99,,2013-03-08 20:53:00,
2013-03-08 16:02:00,56.0,22.0,-100.00,NNW,335,13.0,35.0,27,-99.99,,,-99.99,,2013-03-08 21:02:00,
2013-03-08 16:11:00,56.0,23.0,-100.00,NNW,340,12.0,42.0,27,-99.99,,,-99.99,,2013-03-08 21:11:00,
2013-03-08 16:22:00,57.0,22.0,-100.00,NW,315,11.0,25.0,26,-99.99,,,-99.99,,2013-03-08 21:22:00,
2013-03-08 16:32:00,57.0,23.0,-100.00,NNW,345,11.0,27.0,27,-99.99,,,-99.99,,2013-03-08 21:32:00,
2013-03-08 16:42:00,57.0,22.0,-100.00,NNW,345,14.0,43.0,26,-99.99,,,-99.99,,2013-03-08 21:42:00,
2013-03-08 16:52:00,57.0,23.0,-100.00,NNW,340,11.0,32.0,27,-99.99,,,-99.99,,2013-03-08 21:52:00,
2013-03-08 17:01:00,57.0,23.0,-100.00,North,0,6.0,27.0,27,-99.99,,,-99.99,,2013-03-08 22:01:00,
2013-03-08 17:11:00,57.0,23.0,-100.00,NNW,335,4.0,15.0,27,-99.99,,,-99.99,,2013-03-08 22:11:00,
2013-03-08 17:22:00,57.0,23.0,-100.00,NNW,345,1.0,18.0,27,-99.99,,,-99.99,,2013-03-08 22:22:00,
2013-03-08 17:32:00,57.0,23.0,-100.00,NNW,345,6.0,20.0,26,-99.99,,,-99.99,,2013-03-08 22:32:00,
2013-03-08 17:42:00,57.0,23.0,-100.00,NNW,335,4.0,15.0,26,-99.99,,,-99.99,,2013-03-08 22:42:00,
2013-03-08 17:52:00,57.0,23.0,-100.00,North,350,8.0,16.0,26,-99.99,,,-99.99,,2013-03-08 22:52:00,
2013-03-08 18:02:00,57.0,23.0,-100.00,North,0,2.0,20.0,26,-99.99,,,-99.99,,2013-03-08 23:02:00,
2013-03-08 18:12:00,57.0,23.0,-100.00,North,350,12.0,20.0,26,-99.99,,,-99.99,,2013-03-08 23:12:00,
2013-03-08 18:22:00,57.0,22.0,-100.00,North,0,11.0,25.0,25,-99.99,,,-99.99,,2013-03-08 23:22:00,
2013-03-08 18:32:00,57.0,22.0,-100.00,North,0,6.0,21.0,26,-99.99,,,-99.99,,2013-03-08 23:32:00,
2013-03-08 18:42:00,57.0,22.0,-100.00,North,0,11.0,20.0,26,-99.99,,,-99.99,,2013-03-08 23:42:00,
2013-03-08 18:52:00,56.0,22.0,-100.00,North,0,9.0,24.0,26,-99.99,,,-99.99,,2013-03-08 23:52:00,
2013-03-08 19:02:00,56.0,22.0,-100.00,North,0,6.0,14.0,26,-99.99,,,-99.99,,2013-03-09 00:02:00,
2013-03-08 19:12:00,56.0,22.0,-100.00,North,0,4.0,16.0,26,-99.99,,,-99.99,,2013-03-09 00:12:00,
2013-03-08 19:22:00,56.0,22.0,-100.00,NNW,345,1.0,12.0,26,-99.99,,,-99.99,,2013-03-09 00:22:00,
2013-03-08 19:32:00,56.0,22.0,-100.00,NNW,345,1.0,4.0,27,-99.99,,,-99.99,,2013-03-09 00:32:00,
2013-03-08 19:40:00,56.0,24.0,-100.00,NNW,330,0.0,9.0,29,-99.99,,,-99.99,,2013-03-09 00:40:00,
2013-03-08 19:42:00,56.0,22.0,-100.00,NNW,335,0.0,1.0,27,-99.99,,,-99.99,,2013-03-09 00:42:00,
2013-03-08 19:52:00,56.0,23.0,-100.00,NNW,335,0.0,1.0,28,-99.99,,,-99.99,,2013-03-09 00:52:00,
2013-03-08 20:02:00,56.0,23.0,-100.00,NNW,335,0.0,1.0,28,-99.99,,,-99.99,,2013-03-09 01:02:00,
2013-03-08 20:12:00,56.0,24.0,-100.00,NNW,330,0.0,9.0,29,-99.99,,,-99.99,,2013-03-09 01:12:00,
2013-03-08 20:22:00,56.0,24.0,-100.00,NNW,330,0.0,9.0,29,-99.99,,,-99.99,,2013-03-09 01:22:00,
2013-03-08 20:32:00,56.0,24.0,-100.00,NNW,330,0.0,9.0,29,-99.99,,,-99.99,,2013-03-09 01:32:00,
2013-03-08 22:11:00,52.0,23.0,-100.00,North,0,1.0,9.0,32,-99.99,,,-99.99,,2013-03-09 03:11:00,
2013-03-08 22:22:00,52.0,23.0,-100.00,North,0,1.0,9.0,32,-99.99,,,-99.99,,2013-03-09 03:22:00,
2013-03-08 22:32:00,51.0,24.0,-100.00,NNW,345,0.0,0.0,34,-99.99,,,-99.99,,2013-03-09 03:32:00,
2013-03-08 22:42:00,51.0,25.0,-100.00,NNW,330,0.0,0.0,35,-99.99,,,-99.99,,2013-03-09 03:42:00,
2013-03-08 22:52:00,51.0,25.0,-100.00,NNW,330,0.0,0.0,35,-99.99,,,-99.99,,2013-03-09 03:52:00,
2013-03-08 23:01:00,51.0,26.0,-100.00,NNW,345,0.0,9.0,38,-99.99,,,-99.99,,2013-03-09 04:01:00,
2013-03-08 23:11:00,51.0,26.0,-100.00,NNW,335,6.0,8.0,38,-99.99,,,-99.99,,2013-03-09 04:11:00,
2013-03-08 23:22:00,52.0,26.0,-100.00,NNW,335,0.0,9.0,37,-99.99,,,-99.99,,2013-03-09 04:22:00,
2013-03-08 23:32:00,52.0,26.0,-100.00,NNW,340,0.0,0.0,37,-99.99,,,-99.99,,2013-03-09 04:32:00,
2013-03-08 23:42:00,51.0,26.0,-100.00,North,0,0.0,1.0,37,-99.99,,,-99.99,,2013-03-09 04:42:00,
2013-03-08 23:51:00,51.0,25.0,-100.00,North,0,0.0,0.0,36,-99.99,,,-99.99,,2013-03-09 04:51:00,